Theta_e
316 315 314 313 313 313 313 313 314 313 313 312 311 311 310 309 309 309 309 308 308 307 307 307 307 307 307 307 306 306 306 306 307 305 305 306 306 307 308 312 316 319 321
316 315 315 315 314 314 314 314 313 312 311 311 311 309 309 309 308 308 307 307 307 307 308 307 307 306 306 306 305 306 307 307 306 305 305 305 305 305 305 307 309 310 315
314 314 314 314 314 314 313 312 311 311 311 311 310 310 310 309 307 307 308 309 308 308 308 309 309 309 309 309 308 308 308 307 307 306 306 306 306 306 305 306 308 311 310
312 311 312 313 314 314 313 312 311 311 311 311 310 310 309 307 308 309 309 309 309 309 309 309 310 311 311 312 311 310 310 309 309 308 307 306 305 306 306 305 304 305 306
309 309 311 312 313 313 312 311 311 311 311 310 310 308 307 309 309 310 309 310 310 310 311 312 312 312 313 312 311 312 312 310 310 309 308 306 305 306 307 305 304 304 305
309 310 311 312 312 311 311 311 311 310 310 309 307 307 308 309 309 308 308 308 310 311 312 313 314 314 314 314 314 314 313 310 309 309 308 307 307 306 307 304 304 304 304
309 309 310 310 311 311 310 310 310 309 308 307 307 308 308 308 308 308 307 310 311 312 313 315 315 315 314 314 314 313 313 312 309 309 309 309 310 310 307 306 304 304 304
309 309 309 308 308 308 308 308 307 307 306 306 307 308 308 307 307 307 307 311 312 313 314 315 314 315 315 314 313 312 312 313 312 310 310 310 311 311 309 307 305 304 305
305 306 308 308 307 306 306 306 306 306 306 305 306 306 307 307 306 306 309 312 313 314 315 314 314 314 315 314 314 313 314 313 313 311 310 311 312 311 311 309 307 305 306
303 305 307 305 303 303 304 304 305 305 305 305 305 305 305 306 305 307 310 312 314 315 315 314 314 315 314 314 314 313 312 313 313 311 310 310 311 311 312 311 309 307 306
302 305 306 306 305 304 304 304 304 304 303 303 302 303 304 304 305 309 312 313 314 314 314 314 315 314 315 315 314 314 314 313 314 310 308 309 310 312 312 312 311 310 308
302 303 304 304 304 303 303 304 304 304 304 304 303 303 302 304 307 310 312 312 313 312 312 312 313 314 314 315 315 315 315 314 314 312 310 310 310 311 313 312 312 311 311
299 301 303 303 302 302 302 302 303 302 303 303 302 301 301 304 308 309 311 314 313 313 312 312 313 314 314 315 315 315 315 314 311 313 313 312 311 310 311 311 310 311 312
297 296 297 301 301 299 299 300 300 300 301 300 300 299 301 304 307 309 310 312 313 313 312 313 313 314 313 314 315 314 314 311 311 313 312 311 310 309 308 308 309 311 311
296 296 296 296 295 296 297 297 297 295 295 297 297 297 299 302 302 304 306 309 309 310 311 312 313 313 313 313 314 313 314 313 312 314 312 311 311 310 311 311 310 310 310
295 296 296 295 296 295 295 294 293 292 292 292 293 296 297 299 301 302 305 306 307 308 309 310 310 309 309 308 309 312 312 313 312 312 313 312 312 313 313 314 314 313 311
295 295 295 295 296 294 294 294 293 292 291 290 290 293 296 299 302 302 304 305 306 308 306 306 307 306 304 305 306 305 305 307 310 310 312 314 313 312 313 314 316 317 315
293 294 294 294 294 293 293 293 291 291 290 290 289 290 293 295 299 301 303 303 304 304 303 303 302 302 303 303 304 305 306 307 311 313 313 315 315 316 316 317 317 317 318
293 292 293 293 292 292 292 291 291 290 289 289 288 289 289 290 292 295 298 299 297 297 296 297 297 298 301 301 303 304 305 305 307 311 311 313 316 317 318 318 318 318 318
291 291 291 292 291 291 291 290 289 288 288 288 287 286 287 288 289 289 289 290 291 290 290 290 292 293 296 298 300 304 305 307 309 308 309 311 314 316 317 319 319 319 319
290 289 290 290 290 289 289 289 288 287 287 287 286 286 286 286 286 287 287 287 288 288 288 288 288 290 292 293 295 300 302 304 307 307 306 310 313 317 319 320 317 321 321
288 288 288 288 288 287 287 287 286 286 286 286 285 285 285 286 286 286 286 286 286 286 287 287 287 288 288 289 291 293 297 301 306 309 308 309 313 315 318 321 321 321 320
288 287 287 287 286 286 286 286 286 286 285 285 285 285 285 285 285 285 285 286 286 286 287 287 287 287 288 288 289 290 291 296 302 304 309 308 312 315 319 321 321 321 321
287 287 287 286 286 286 286 286 286 286 285 285 285 285 285 285 285 285 285 286 286 286 287 287 287 287 287 287 287 289 290 292 299 305 309 311 312 315 318 320 322 322 322
287 286 286 286 285 285 285 285 285 285 285 285 285 285 285 284 285 285 286 286 286 286 286 287 287 287 287 287 287 288 290 291 294 303 308 310 312 314 318 318 319 320 320
287 287 286 285 285 285 285 285 284 284 284 284 284 284 284 284 284 284 285 285 286 286 286 287 287 287 287 287 287 287 288 290 291 297 306 310 310 314 317 318 318 318 320
Wind_Speed
9 7 5 3 1 2 4 6 8 9 10 12 15 16 18 19 21 22 24 25 25 25 25 27 28 26 28 29 28 26 29 31 40 42 42 41 41 42 45 47 48 46 47
6 4 2 2 4 6 7 8 9 10 12 15 17 17 20 22 23 23 23 21 23 24 25 25 27 27 29 29 30 28 31 33 39 41 39 40 38 35 35 35 37 41 48
1 2 3 4 3 4 6 6 8 11 14 17 18 21 24 25 24 19 18 17 19 21 24 26 27 28 30 30 30 32 32 33 35 38 40 39 39 36 32 29 30 31 35
5 7 8 9 9 9 9 10 12 14 17 18 22 25 24 22 16 14 15 17 20 23 26 28 30 32 33 34 35 36 36 36 34 35 35 35 33 33 31 34 36 34 37
7 9 9 10 10 11 11 12 14 16 19 23 25 23 19 12 13 14 17 21 23 26 26 25 24 26 28 29 30 33 36 38 36 37 35 31 32 31 32 31 31 31 30
7 8 9 11 12 13 14 15 17 20 22 22 20 15 9 13 14 16 19 26 26 24 23 26 30 33 33 32 32 32 30 35 41 41 38 34 33 33 31 31 29 27 29
8 10 12 14 17 18 19 19 20 20 19 16 11 11 11 14 16 19 24 25 19 21 28 31 31 33 32 31 30 29 32 32 35 39 43 40 37 30 30 31 30 27 24
8 10 12 14 16 17 17 17 16 15 12 11 12 14 14 15 18 22 26 19 21 26 26 25 27 30 25 28 30 30 30 33 32 32 35 35 33 28 29 27 26 27 26
9 11 13 13 12 10 9 10 11 9 9 11 13 16 18 18 20 23 23 19 25 26 20 21 25 26 26 26 30 33 32 33 32 31 33 31 29 27 25 26 27 25 27
9 12 12 12 10 5 5 6 6 9 13 14 16 17 18 20 21 23 19 23 24 23 22 24 26 25 24 25 25 28 34 34 29 29 30 31 28 28 26 26 27 28 28
10 11 10 8 8 6 6 7 8 11 13 14 16 17 18 18 18 17 16 19 22 25 23 21 22 27 24 21 22 26 27 26 25 23 26 28 29 27 26 24 26 27 29
11 11 9 6 5 6 8 9 10 12 13 13 14 15 14 13 15 12 14 19 20 21 17 18 21 24 24 23 24 23 20 23 20 18 23 27 29 28 29 28 30 26 26
12 14 12 8 6 6 8 9 9 9 11 14 17 18 16 15 16 13 12 17 15 14 12 16 21 24 25 23 22 24 25 17 22 20 18 21 26 27 28 28 25 23 25
8 12 17 14 8 6 8 10 12 15 15 16 17 18 19 19 19 15 14 17 19 15 17 20 23 27 33 28 27 28 31 23 16 17 19 19 12 12 15 18 19 21 24
5 8 9 14 16 14 13 14 15 19 20 17 16 17 18 20 19 14 14 16 17 18 20 25 31 32 34 35 28 29 34 31 21 10 14 8 3 6 9 10 17 21 24
5 5 5 7 7 9 11 13 14 15 16 18 14 13 12 14 13 7 8 12 15 18 24 31 35 34 38 41 37 32 32 32 27 12 7 10 6 6 12 15 21 28 24
6 7 4 6 6 5 8 9 11 12 12 15 16 12 11 11 11 10 10 12 16 17 28 32 34 35 38 41 41 40 37 31 28 24 9 8 13 15 15 16 13 14 21
6 5 5 5 7 8 8 7 11 13 14 15 17 16 14 14 12 11 11 13 19 22 26 29 32 35 39 41 42 43 44 36 29 27 20 12 9 9 13 13 6 3 13
6 6 5 5 6 6 6 8 10 12 14 17 17 16 18 17 16 16 16 19 23 24 26 27 29 32 35 38 41 42 43 43 38 32 24 19 13 8 8 8 5 9 12
7 6 5 5 5 6 7 9 11 13 15 18 21 24 23 21 23 25 26 25 25 26 27 28 29 30 33 36 39 40 42 44 45 38 28 23 18 16 12 6 6 9 18
7 6 6 6 6 8 8 10 13 13 15 17 19 20 22 25 26 26 27 27 27 27 28 29 31 31 31 34 37 39 42 43 44 45 35 24 20 16 10 8 10 14 17
9 9 8 10 10 10 11 11 12 13 15 17 19 21 23 24 25 25 25 25 25 25 27 28 29 32 32 34 37 39 41 43 42 44 43 30 23 16 13 5 8 15 15
12 10 10 12 13 12 12 14 15 16 16 17 20 22 25 25 26 26 25 25 25 25 26 27 29 30 32 34 34 36 39 40 40 42 44 35 26 23 16 8 13 14 17
16 15 13 13 15 16 14 14 15 16 17 17 19 21 25 26 25 25 26 26 26 26 26 26 28 29 31 33 34 33 33 35 34 36 37 37 24 20 22 15 9 18 19
18 17 16 15 15 16 16 16 17 17 19 20 21 21 23 25 25 26 27 26 26 27 27 27 28 29 30 31 33 34 32 31 32 32 34 36 27 16 18 16 8 12 17
17 18 18 18 17 17 17 18 18 18 19 20 21 21 22 24 25 26 27 27 28 28 29 29 29 29 30 31 32 34 34 32 31 30 29 31 29 19 13 16 12 8 14
Wind_Direction
118 115 119 126 126 305 302 304 314 315 318 320 313 313 315 317 316 313 312 308 305 303 300 298 297 297 291 290 291 286 279 280 287 292 288 288 287 286 281 273 268 267 265
116 112 92 359 329 321 315 319 317 317 318 317 318 318 321 321 317 312 310 307 303 304 306 305 303 303 296 294 293 285 279 280 284 287 289 290 292 293 287 282 279 270 263
205 227 235 247 269 299 309 300 294 305 313 315 317 318 318 319 314 310 310 315 317 316 316 313 310 310 305 302 296 292 288 288 287 287 288 289 292 295 293 286 280 279 273
245 256 255 258 260 260 266 271 283 299 307 309 313 314 315 313 315 316 319 317 313 310 308 303 303 303 298 296 291 286 285 284 285 285 287 293 295 294 291 290 287 287 279
258 254 256 262 266 266 263 270 283 295 303 307 309 309 309 312 317 313 307 302 302 307 312 322 324 323 318 313 306 296 284 279 279 283 285 283 291 298 295 295 283 289 291
260 266 264 262 265 267 271 277 285 294 299 304 307 307 310 307 311 306 307 309 309 313 325 321 315 310 309 301 294 295 295 277 268 268 271 272 283 290 298 297 292 296 301
288 282 276 270 267 269 273 280 287 292 297 302 301 305 308 303 309 305 313 318 319 319 314 318 318 318 313 307 299 295 288 288 269 262 264 270 279 287 290 292 291 289 288
314 310 299 288 282 278 279 280 283 288 294 300 299 304 309 312 308 307 318 311 311 311 317 327 328 328 335 334 325 307 289 287 281 263 262 264 273 279 283 288 291 287 283
326 328 321 311 298 288 278 278 281 293 302 297 300 299 302 311 315 316 316 309 312 319 325 326 335 329 325 321 316 312 306 288 285 275 264 262 262 268 277 278 272 274 282
335 336 330 328 327 312 294 286 296 298 300 305 298 298 306 308 318 322 312 312 321 326 330 332 338 339 326 322 323 319 314 309 294 279 270 260 263 264 266 262 263 262 266
349 343 338 328 314 288 292 297 298 300 305 308 309 311 309 311 317 322 319 326 324 324 331 350 5 2 352 348 343 345 336 326 303 277 270 267 267 262 267 264 257 257 255
10 3 353 333 308 301 305 308 306 305 309 312 323 331 336 333 335 338 321 327 329 330 341 354 358 353 355 4 356 346 336 334 328 290 266 266 266 266 259 267 271 255 257
36 32 16 350 311 308 325 344 349 348 344 345 353 351 353 358 5 352 345 357 345 346 5 5 6 359 5 357 352 0 348 356 335 309 304 296 284 276 274 272 267 260 255
41 44 41 37 39 43 34 36 29 23 15 9 6 5 5 4 2 356 354 353 359 1 19 20 16 15 12 5 7 12 8 9 343 334 312 312 298 283 265 254 246 248 251
51 47 47 53 54 49 43 39 34 30 24 19 15 11 7 6 7 359 1 1 10 10 21 26 20 12 16 12 20 9 10 16 10 15 337 327 324 355 301 265 244 232 231
37 39 62 55 57 48 48 46 43 34 29 28 20 14 18 17 12 4 3 26 24 16 26 30 30 22 22 17 13 8 6 8 14 359 320 299 279 269 288 296 302 233 219
43 31 28 20 44 30 26 36 34 32 26 26 24 21 17 4 6 16 22 34 32 17 32 29 31 25 20 20 17 15 12 10 13 17 18 280 279 279 294 308 325 192 194
33 28 21 37 24 19 36 35 18 11 16 23 24 24 21 19 8 3 7 20 34 36 36 28 21 21 21 17 16 17 18 14 15 14 18 19 12 328 305 296 308 173 180
9 18 27 35 41 32 26 19 15 11 15 22 26 33 31 31 27 26 22 28 29 26 27 24 18 19 17 15 14 14 19 16 19 11 9 13 22 3 294 280 250 193 209
12 15 4 11 6 13 11 13 17 22 24 25 26 26 25 28 31 32 32 31 29 26 22 20 14 14 15 13 11 12 13 16 19 12 6 7 13 28 2 275 208 226 194
24 25 25 21 27 24 21 22 20 22 29 31 31 30 29 31 33 30 30 31 29 25 23 22 18 15 12 13 11 10 10 12 15 11 12 10 20 33 21 183 217 198 184
38 41 40 42 40 37 34 33 31 35 35 33 34 34 33 31 31 31 30 28 29 25 22 20 21 18 14 18 12 11 9 8 12 12 11 14 19 22 47 147 198 182 191
51 52 53 54 49 46 44 41 39 37 35 32 29 29 28 29 26 25 26 24 23 23 21 19 17 18 17 18 18 14 10 6 8 11 13 14 19 23 48 138 183 173 185
49 53 54 52 47 43 41 35 32 30 27 23 20 19 20 21 20 20 20 20 19 19 19 18 17 15 14 14 16 17 15 9 8 11 22 22 15 24 60 111 171 191 197
42 42 42 38 32 30 28 26 22 20 18 16 12 9 12 12 12 12 13 14 15 15 16 16 15 14 12 12 10 13 18 13 9 9 20 30 15 8 59 76 115 144 151
30 29 28 25 21 19 17 16 13 10 8 6 4 1 1 2 3 5 6 8 9 9 10 11 12 9 8 9 8 7 10 17 11 12 15 24 25 35 52 73 69 80 158